Date String (YYYY-MM-DD hh:mm:ss) UTC,Instrument flags,Ambient pressure (hPa),Sample flow (lpm),Bypass flow (lpm),Sample temperature (°C),Ambient temperature (°C),ASC tube jacket temperature (°C),LED temperature (°C),Box temperature (°C),Sample RH (%),Span deviation,Mass concentration (μg/m³),Mass concentration (μg/m³),Mass concentration (μg/m³)
DateTimeUTC,F1_M11,P_M11,Q1_M11,Q2_M11,T1_M11,T2_M11,T3_M11,T4_M11,T5_M11,U1_M11,ZSPAN_M11,X0_M11,X2_M11,X1_M11
2022-01-08 20:00:00,,0818.9,5.01,0.00,23.6,23.0,00.0,32.6,25.4,14.9,0000.0,0008.22,0005.10,0004.90
2022-01-08 20:01:00,,0818.9,5.00,0.00,23.6,23.0,00.0,32.6,25.4,14.8,0000.0,0008.51,0005.07,0004.85
2022-01-08 20:02:00,,0818.9,5.00,0.00,23.6,23.0,00.0,32.6,25.4,14.8,0000.0,0008.84,0005.03,0004.81
2022-01-08 20:03:00,,0818.9,4.99,0.00,23.6,23.0,00.0,32.6,25.4,14.8,0000.0,0008.84,0004.99,0004.77
2022-01-08 20:04:00,,0818.9,5.01,0.00,23.6,23.0,00.0,32.6,25.4,14.8,0000.0,0008.76,0004.97,0004.74
2022-01-08 20:05:00,,0818.9,4.99,0.00,23.6,23.0,00.0,32.6,25.4,14.9,0000.0,0008.79,0004.95,0004.72
2022-01-08 20:06:00,,0819.0,5.00,0.00,23.6,23.0,00.0,32.6,25.3,15.0,0000.0,0008.68,0004.92,0004.69
2022-01-08 20:07:00,,0819.0,5.01,0.00,23.6,22.9,00.0,32.6,25.4,14.9,0000.0,0008.89,0004.92,0004.66
2022-01-08 20:08:00,,0818.9,5.00,0.00,23.6,22.9,00.0,32.6,25.4,15.0,0000.0,0008.63,0004.88,0004.64
2022-01-08 20:09:00,,0818.9,5.01,0.00,23.6,23.0,00.0,32.6,25.3,15.0,0000.0,0008.56,0004.85,0004.61
2022-01-08 20:10:00,,0819.0,5.00,0.00,23.6,23.0,00.0,32.6,25.4,15.0,0000.0,0008.52,0004.82,0004.59
2022-01-08 20:11:00,,0819.0,4.99,0.00,23.6,23.0,00.0,32.6,25.4,14.9,0000.0,0008.48,0004.81,0004.57
2022-01-08 20:12:00,,0819.0,5.00,0.00,23.6,23.0,00.0,32.6,25.4,14.8,0000.0,0008.10,0004.78,0004.56
2022-01-08 20:13:00,,0819.0,5.00,0.00,23.6,23.0,00.0,32.6,25.4,14.9,0000.0,0007.74,0004.78,0004.57
2022-01-08 20:14:00,,0819.0,5.00,0.00,23.6,23.0,00.0,32.6,25.4,15.0,0000.0,0007.84,0004.80,0004.58
2022-01-08 20:15:00,,0818.9,5.00,0.00,23.6,23.0,00.0,32.6,25.4,15.0,0000.0,0007.86,0004.80,0004.58
2022-01-08 20:16:00,,0819.0,5.01,0.00,23.6,23.0,00.0,32.6,25.4,14.9,0000.0,0007.81,0004.80,0004.58
2022-01-08 20:17:00,,0819.0,5.00,0.00,23.6,23.1,00.0,32.6,25.4,15.0,0000.0,0007.76,0004.78,0004.58
2022-01-08 20:18:00,,0819.0,4.99,0.00,23.6,23.0,00.0,32.6,25.4,15.0,0000.0,0007.51,0004.77,0004.59
2022-01-08 20:19:00,,0819.0,5.00,0.00,23.6,23.0,00.0,32.6,25.4,15.0,0000.0,0007.45,0004.76,0004.59
2022-01-08 20:20:00,,0819.0,5.01,0.00,23.6,23.1,00.0,32.6,25.5,15.0,0000.0,0007.59,0004.79,0004.60
2022-01-08 20:21:00,,0819.0,4.99,0.00,23.7,23.1,00.0,32.6,25.5,15.0,0000.0,0007.67,0004.82,0004.61
2022-01-08 20:22:00,,0819.0,5.00,0.00,23.7,23.1,00.0,32.6,25.5,15.0,0000.0,0007.71,0004.85,0004.63
2022-01-08 20:23:00,,0819.1,5.01,0.00,23.7,23.1,00.0,32.6,25.5,15.0,0000.0,0007.75,0004.88,0004.65
2022-01-08 20:24:00,,0819.1,4.99,0.00,23.7,23.1,00.0,32.7,25.5,14.9,0000.0,0007.75,0004.89,0004.66
2022-01-08 20:25:00,,0819.2,5.00,0.00,23.7,23.2,00.0,32.7,25.5,14.9,0000.0,0007.65,0004.90,0004.68
2022-01-08 20:26:00,,0819.2,5.01,0.00,23.7,23.2,00.0,32.7,25.5,14.9,0000.0,0007.62,0004.92,0004.70
2022-01-08 20:27:00,,0819.2,4.99,0.00,23.8,23.2,00.0,32.7,25.5,15.0,0000.0,0007.67,0004.96,0004.72
2022-01-08 20:28:00,,0819.3,4.99,0.00,23.8,23.2,00.0,32.7,25.6,15.0,0000.0,0007.73,0004.99,0004.74
2022-01-08 20:29:00,,0819.3,5.00,0.00,23.8,23.2,00.0,32.7,25.6,15.3,0000.0,0007.77,0005.01,0004.77
2022-01-08 20:30:00,,0819.3,4.99,0.00,23.8,23.3,00.0,32.7,25.6,15.4,0000.0,0007.80,0005.04,0004.78
2022-01-08 20:31:00,,0819.3,5.00,0.00,23.8,23.3,00.0,32.7,25.6,15.3,0000.0,0007.70,0005.03,0004.80
2022-01-08 20:32:00,,0819.2,5.00,0.00,23.8,23.3,00.0,32.7,25.6,15.2,0000.0,0007.65,0005.04,0004.82
2022-01-08 20:33:00,,0819.2,4.99,0.00,23.9,23.3,00.0,32.8,25.6,15.1,0000.0,0007.76,0005.06,0004.83
2022-01-08 20:34:00,,0819.3,5.01,0.00,23.9,23.3,00.0,32.8,25.6,15.2,0000.0,0007.84,0005.08,0004.84
2022-01-08 20:35:00,,0819.2,5.00,0.00,23.9,23.3,00.0,32.8,25.6,15.0,0000.0,0008.77,0005.15,0004.86
2022-01-08 20:36:00,,0819.2,5.01,0.00,23.9,23.3,00.0,32.8,25.7,15.0,0000.0,0008.80,0005.16,0004.87
2022-01-08 20:37:00,,0819.2,4.99,0.00,23.9,23.3,00.0,32.8,25.7,15.1,0000.0,0008.81,0005.16,0004.88
2022-01-08 20:38:00,,0819.1,4.99,0.00,23.9,23.3,00.0,32.8,25.7,15.1,0000.0,0008.94,0005.17,0004.88
2022-01-08 20:39:00,,0819.2,5.00,0.00,23.9,23.4,00.0,32.8,25.7,15.0,0000.0,0009.20,0005.17,0004.89
2022-01-08 20:40:00,,0819.2,5.00,0.00,24.0,23.4,00.0,32.8,25.7,14.8,0000.0,0009.25,0005.19,0004.89
2022-01-08 20:41:00,,0819.2,4.99,0.00,24.0,23.4,00.0,32.9,25.8,14.7,0000.0,0009.32,0005.22,0004.91
2022-01-08 20:42:00,,0819.2,4.99,0.00,24.0,23.4,00.0,32.9,25.8,14.8,0000.0,0009.50,0005.23,0004.92
2022-01-08 20:43:00,,0819.2,5.01,0.00,24.0,23.4,00.0,32.9,25.8,14.8,0000.0,0009.71,0005.24,0004.95
2022-01-08 20:44:00,,0819.3,5.01,0.00,24.0,23.4,00.0,32.9,25.9,15.0,0000.0,0009.63,0005.24,0004.94
2022-01-08 20:45:00,,0819.3,4.99,0.00,24.0,23.4,00.0,32.9,25.9,15.3,0000.0,0009.54,0005.24,0004.95
2022-01-08 20:46:00,,0819.2,5.00,0.00,24.0,23.4,00.0,32.9,25.9,15.0,0000.0,0008.86,0005.22,0004.95
2022-01-08 20:47:00,,0819.2,5.00,0.00,24.0,23.4,00.0,32.9,25.9,14.7,0000.0,0008.96,0005.25,0004.97
2022-01-08 20:48:00,,0819.3,5.02,0.00,24.0,23.4,00.0,33.0,25.9,14.5,0000.0,0008.99,0005.28,0005.00
2022-01-08 20:49:00,,0819.3,4.99,0.00,24.1,23.4,00.0,33.0,25.9,14.5,0000.0,0008.89,0005.29,0005.02
2022-01-08 20:50:00,,0819.3,4.99,0.00,24.1,23.4,00.0,33.0,25.9,14.6,0000.0,0008.64,0005.29,0005.03
2022-01-08 20:51:00,,0819.3,5.01,0.00,24.1,23.5,00.0,33.0,25.9,14.5,0000.0,0008.63,0005.30,0005.05
2022-01-08 20:52:00,,0819.3,5.00,0.00,24.1,23.5,00.0,33.0,26.0,14.6,0000.0,0008.60,0005.30,0005.05
2022-01-08 20:53:00,,0819.3,5.00,0.00,24.1,23.5,00.0,33.0,26.0,14.6,0000.0,0008.46,0005.32,0005.07
2022-01-08 20:54:00,,0819.3,5.00,0.00,24.1,23.5,00.0,33.0,26.0,14.6,0000.0,0008.33,0005.34,0005.06
2022-01-08 20:55:00,,0819.3,4.99,0.00,24.1,23.5,00.0,33.0,26.0,14.8,0000.0,0008.67,0005.33,0005.07
2022-01-08 20:56:00,,0819.4,5.00,0.00,24.1,23.5,00.0,33.0,26.0,14.6,0000.0,0008.72,0005.33,0005.08
2022-01-08 20:57:00,,0819.4,5.00,0.00,24.2,23.5,00.0,33.0,26.0,14.5,0000.0,0008.83,0005.32,0005.07
2022-01-08 20:58:00,,0819.4,4.99,0.00,24.2,23.5,00.0,33.1,26.0,14.5,0000.0,0008.83,0005.30,0005.06
2022-01-08 20:59:00,,0819.4,4.99,0.00,24.2,23.6,00.0,33.1,26.0,14.7,0000.0,0008.84,0005.29,0005.05
